Home   Weather   Fort Collins   Past weeks

Flag for USA Past Weather in Fort Collins, Colorado, USA — Yesterday and Last 2 Weeks

Now
36 °F

Sunny.


Feels Like: 31 °F
Forecast: 20 / 47 °F
Wind: 6 mph from Northeast

Location: Fort Collins-Loveland Municipal Airport

Current Time: Dec 10, 2016 at 1:32:05 pm

Latest Report: Dec 10, 2016 at 12:55 pm


Visibility: 7 mi

Pressure: 29.75 "Hg (24.63 "Hg at 1522m altitude)

Humidity: 65%

Dew Point: 25 °F

Location of Fort CollinsLocation

Past Weather in Fort Collins — Graph

°F

Fort Collins Temperature Yesterday

Maximum temperature yesterday: 32 °F (at 1:55 pm)
Minimum temperature yesterday: 3 °F (at 3:35 am)
Average temperature yesterday: 18 °F

High & Low Weather Summary for the Past Weeks

 TemperatureHumidityPressure
High59 °F (Nov 26, 1:55 pm)100% (Dec 4, 5:15 am)30.45 "Hg (Dec 4, 5:15 am)
Low-8 °F (Dec 8, 5:55 am)11% (Nov 26, 2:55 pm)29.31 "Hg (Nov 27, 1:35 pm)
Average28 °F54%29.92 "Hg
* Reported Nov 25 12:15 pm — Dec 10 12:15 pm, Fort Collins, Weather by CustomWeather, © 2016

Note: Actual official high and low records may vary slightly from our data, if they occured in-between our weather recording intervals... More about our weather records

Advertising

Fort Collins Weather History for the Previous 24 Hours

Scroll right to see more
 ConditionsComfort  
Time TempWeatherWind HumidityBarometerVisibility
12:15 pm
Sat, Dec 10
32 °FSunny.3 mph75%29.78 "Hg7 mi
11:55 am30 °FSunny.No wind75%29.80 "Hg6 mi
11:35 am28 °FSunny.8 mph80%29.80 "Hg6 mi
10:55 am25 °FSunny.6 mph86%29.83 "Hg5 mi
10:35 am25 °FSunny.7 mph86%29.85 "Hg5 mi
10:15 am23 °FSunny.5 mph86%29.86 "Hg4 mi
9:55 am21 °FSunny.7 mph93%29.87 "Hg3 mi
9:35 am19 °FSunny.5 mph93%29.87 "Hg3 mi
9:15 am19 °FSunny.3 mph93%29.87 "Hg3 mi
8:55 am19 °FSunny.No wind93%29.89 "Hg3 mi
8:35 am18 °FSunny.7 mph100%29.89 "Hg3 mi
8:15 am18 °FSunny.No wind93%29.90 "Hg3 mi
7:55 am18 °FSunny.No wind93%29.90 "Hg4 mi
7:35 am16 °FSunny.No wind93%29.91 "Hg3 mi
7:15 am16 °FSunny.No wind86%29.91 "Hg3 mi
6:55 am16 °FClear.No wind100%29.94 "Hg3 mi
6:35 am14 °FClear.5 mph92%29.93 "Hg4 mi
6:15 am12 °FClear.No wind92%29.95 "Hg3 mi
5:55 am12 °FClear.No wind92%29.96 "Hg4 mi
5:35 am14 °FClear.No wind85%29.96 "Hg4 mi
5:15 am14 °FClear.No wind100%29.96 "Hg5 mi
4:55 am16 °FClear.5 mph93%29.97 "Hg5 mi
4:15 am16 °FClear.No wind86%29.98 "Hg3 mi
3:55 am14 °FClear.No wind85%30.00 "Hg4 mi
3:35 am16 °FClear.No wind93%30.00 "Hg4 mi
2:55 am14 °FClear.No wind85%30.03 "Hg3 mi
2:35 am16 °FClear.No wind86%30.02 "Hg5 mi
2:15 am16 °FClear.No wind79%30.04 "Hg5 mi
1:55 am18 °FClear.No wind86%30.04 "Hg8 mi
1:35 am18 °FClear.7 mph93%30.03 "Hg7 mi
1:15 am18 °FClear.No wind86%30.04 "Hg6 mi
12:55 am18 °FClear.No wind79%30.06 "Hg7 mi
12:35 am19 °FClear.7 mph86%30.04 "Hg7 mi
12:15 am19 °FClear.No wind93%30.06 "Hg7 mi
11:55 pm
Fri, Dec 9
19 °FClear.No wind86%30.08 "Hg8 mi
11:35 pm19 °FClear.No wind93%30.09 "Hg7 mi
10:55 pm21 °FClear.3 mph86%30.11 "Hg8 mi
10:35 pm19 °FClear.5 mph86%30.10 "Hg7 mi
9:55 pm25 °FPassing clouds.5 mph80%30.13 "Hg10 mi
9:35 pm25 °FClear.7 mph80%30.12 "Hg10 mi
9:15 pm25 °FPassing clouds.12 mph80%30.11 "Hg10 mi
8:55 pm27 °FPassing clouds.5 mph74%30.13 "Hg10 mi
8:35 pm25 °FPassing clouds.6 mph80%30.13 "Hg10 mi
8:15 pm25 °FPassing clouds.6 mph80%30.13 "Hg10 mi
7:55 pm25 °FClear.9 mph80%30.12 "Hg10 mi
7:35 pm25 °FClear.3 mph80%30.15 "Hg10 mi
7:15 pm27 °FClear.6 mph80%30.16 "Hg10 mi
6:55 pm25 °FClear.3 mph80%30.17 "Hg10 mi
6:35 pm27 °FClear.6 mph74%30.16 "Hg10 mi
6:15 pm28 °FClear.No wind69%30.15 "Hg10 mi
5:55 pm28 °FClear.No wind69%30.15 "Hg10 mi
5:35 pm28 °FClear.5 mph69%30.14 "Hg10 mi
5:15 pm28 °FClear.No wind74%30.13 "Hg10 mi
4:55 pm28 °FClear.No wind69%30.11 "Hg10 mi
4:35 pm28 °FClear.No wind69%30.11 "Hg9 mi
4:15 pm28 °FSunny.No wind69%30.10 "Hg8 mi
3:55 pm30 °FSunny.8 mph64%30.10 "Hg8 mi
3:35 pm30 °FSunny.6 mph64%30.10 "Hg8 mi
3:15 pm32 °FSunny.7 mph60%30.09 "Hg9 mi
2:55 pm30 °FSunny.No wind64%30.11 "Hg9 mi
2:35 pm32 °FSunny.6 mph60%30.09 "Hg10 mi
1:55 pm32 °FSunny.No wind60%30.08 "Hg10 mi
1:35 pm30 °FSunny.7 mph64%30.08 "Hg10 mi
1:15 pm28 °FSunny.5 mph64%30.07 "Hg9 mi
Weather by CustomWeather, © 2016

See weather overviewHow to use our weather pages